Volver al catálogo

STARLINK-35366

ActivoComunicacionesVLEO
NORAD 66512·PAYLOAD·🇺🇸 United States

Lanzado Nov 15, 2025 desde Cape Canaveral Space Force Station

Loading…

Próximos Pases (próximas 24 horas)

TLE

ActualizadoSource: CelesTrak SupGP

Época: Sep 15, 2026, 02:27 UTC

1 66512C 25263AD  26258.10256944  .00021185  00000+0  76716-3 0  2586
2 66512  43.0041   1.0415 0002011 266.5912 195.7652 15.27573615    18

Sigue STARLINK-35366 en tiempo real con AllMySat

Download on the App Store